Change the Weather History Date:

Thursday, November 7, 2013

  Actual Average Record
Temperature  
Mean Temperature 54 °F -  
Max Temperature 69 °F 59 °F 77 °F (1959)
Min Temperature 39 °F 35 °F 18 °F (1967)
Degree Days  
Heating Degree Days 11    
Growing Degree Days 4 (Base 50)    
Moisture  
Dew Point 54 °F    
Average Humidity 88    
Maximum Humidity 100    
Minimum Humidity 61    
Precipitation  
Precipitation 0.03 in - - ()
Sea Level Pressure  
Sea Level Pressure 30.00 in    
Wind  
Wind Speed 5 mph (SW)    
Max Wind Speed 17 mph    
Max Gust Speed 23 mph    
Visibility 8 miles    
Events Rain    
Averages and records for this station are not official NWS values.
T = Trace of Precipitation, MM = Missing Value Source: NWS Daily Summary

Daily Weather History Graph

Daily Weather History Graph

Search for Another Location

Airport or City:

Trip Planner

Search our weather history database for the weather conditions in past years. The results will help you decide how hot, cold, wet, or windy it might be!

Date:

Astronomy

Nov. 07, 2013 Rise Set
Actual Time 6:41 AM EST 5:04 PM EST
Civil Twilight 6:13 AM EST 5:32 PM EST
Nautical Twilight 5:42 AM EST 6:03 PM EST
Astronomical Twilight 5:11 AM EST 6:34 PM EST
Moon 10:47 AM EST (11/7) 9:14 PM EST (11/7)
Length of Visible Light 11h 18m
Length of Day
10h 23m
Waxing Crescent, 22% of the Moon is Illuminated
Nov 7
Waxing Crescent
Nov 10
First Quarter
Nov 17
Full
Nov 25
Last Quarter
Dec 2
New

Hourly Weather History & Observations

Time (EST) Temp. Dew Point Humidity Pressure Visibility Wind Dir Wind Speed Gust Speed Precip Events Conditions
12:54 AM 53.1 °F 52.0 °F 96% 30.11 in 10.0 mi Calm Calm - N/A   Mostly Cloudy
1:36 AM 57.0 °F 55.9 °F 96% 30.09 in 6.0 mi South 5.8 mph - N/A   Overcast
1:54 AM 57.0 °F 57.0 °F 100% 30.08 in 3.0 mi SSW 4.6 mph - N/A   Overcast
2:04 AM 57.0 °F 57.0 °F 100% 30.08 in 2.5 mi South 4.6 mph - N/A   Overcast
2:26 AM 57.9 °F 57.0 °F 97% 30.07 in 1.2 mi South 6.9 mph - N/A   Overcast
2:54 AM 57.9 °F 57.0 °F 97% 30.05 in 1.5 mi SSW 4.6 mph - N/A   Overcast
3:26 AM 57.9 °F 57.9 °F 100% 30.04 in 2.5 mi South 5.8 mph - N/A   Overcast
3:37 AM 57.9 °F 57.9 °F 100% 30.04 in 3.0 mi South 8.1 mph - N/A   Overcast
3:54 AM 57.9 °F 57.9 °F 100% 30.03 in 2.5 mi SSW 4.6 mph - N/A   Overcast
4:15 AM 57.9 °F 57.9 °F 100% 30.03 in 4.0 mi South 6.9 mph - N/A   Overcast
4:54 AM 59.0 °F 57.9 °F 96% 30.01 in 7.0 mi SSW 4.6 mph - 0.00 in   Overcast
5:17 AM 59.0 °F 57.9 °F 96% 30.00 in 10.0 mi SW 8.1 mph - N/A   Overcast
5:54 AM 60.1 °F 59.0 °F 96% 29.99 in 7.0 mi SW 6.9 mph - 0.01 in Rain Light Rain
6:32 AM 60.1 °F 59.0 °F 96% 29.97 in 7.0 mi South 5.8 mph - 0.01 in Rain Light Rain
6:54 AM 60.1 °F 59.0 °F 96% 29.97 in 10.0 mi South 6.9 mph - 0.01 in   Overcast
7:54 AM 60.1 °F 59.0 °F 96% 29.96 in 9.0 mi South 6.9 mph - N/A   Overcast
8:54 AM 61.0 °F 60.1 °F 97% 29.96 in 8.0 mi SW 8.1 mph - N/A   Overcast
9:44 AM 63.0 °F 60.1 °F 90% 29.94 in 8.0 mi SW 10.4 mph - N/A   Overcast
9:54 AM 64.0 °F 60.1 °F 87% 29.95 in 8.0 mi SW 10.4 mph - N/A   Overcast
10:21 AM 66.0 °F 60.1 °F 81% 29.94 in 8.0 mi SW 12.7 mph - N/A   Mostly Cloudy
10:54 AM 68.0 °F 59.0 °F 73% 29.91 in 10.0 mi SW 13.8 mph - N/A   Scattered Clouds
11:54 AM 69.1 °F 55.0 °F 61% 29.89 in 10.0 mi West 10.4 mph - N/A   Mostly Cloudy
12:54 PM 66.9 °F 54.0 °F 63% 29.90 in 10.0 mi West 17.3 mph 23.0 mph N/A   Overcast
1:54 PM 63.0 °F 57.0 °F 81% 29.91 in 10.0 mi WNW 9.2 mph - 0.01 in   Overcast
2:54 PM 64.0 °F 55.9 °F 75% 29.91 in 10.0 mi NW 6.9 mph - N/A   Overcast
3:21 PM 63.0 °F 55.9 °F 78% 29.91 in 10.0 mi North 5.8 mph - N/A   Overcast
3:54 PM 60.1 °F 53.1 °F 78% 29.92 in 10.0 mi North 6.9 mph - N/A   Mostly Cloudy
4:02 PM 60.1 °F 53.1 °F 78% 29.93 in 10.0 mi North 4.6 mph - N/A   Mostly Cloudy
4:54 PM 57.9 °F 52.0 °F 81% 29.95 in 10.0 mi Calm Calm - N/A   Scattered Clouds
5:54 PM 55.0 °F 51.1 °F 86% 29.99 in 10.0 mi North 5.8 mph - N/A   Scattered Clouds
6:54 PM 52.0 °F 45.0 °F 77% 30.01 in 10.0 mi Calm Calm - N/A   Clear
7:54 PM 48.9 °F 42.1 °F 77% 30.04 in 10.0 mi Calm Calm - N/A   Clear
8:54 PM 48.0 °F 37.9 °F 68% 30.07 in 10.0 mi NW 5.8 mph - N/A   Clear
9:54 PM 45.0 °F 37.9 °F 76% 30.08 in 10.0 mi Calm Calm - N/A   Clear
10:54 PM 39.9 °F 37.9 °F 93% 30.09 in 10.0 mi Calm Calm - N/A   Clear
11:54 PM 39.9 °F 37.0 °F 89% 30.11 in 10.0 mi Calm Calm - N/A   Clear